CW0214 Weather Reports


Display with metric or nautical units.
time (UTC)temp
F
wind
direction
speed
MPH
gust
MPH
rain 1hr
in
rain 24hr
in
rain mn
in
humidity
%
barometer
mb
20260902071905 60 203 2.0 5.0 0.00 0.00 0.00 93 1020.9
20260902071405 60 203 2.0 5.0 0.00 0.00 0.00 92 1020.9
20260902070904 61 203 3.0 5.0 0.00 0.00 0.00 93 1020.8
20260902070404 61 203 2.0 5.0 0.00 0.00 0.00 93 1020.7
20260902065905 61 203 0.0 0.0 0.00 0.00 0.00 93 1020.7
20260902065405 61 203 0.0 0.0 0.00 0.00 0.00 93 1020.6
20260902064904 61 203 0.0 0.0 0.00 0.00 0.00 93 1020.5
20260902064404 61 203 1.0 6.0 0.00 0.00 0.00 92 1020.5
20260902063905 61 118 1.0 5.0 0.00 0.00 0.00 92 1020.3
20260902063404 61 118 0.0 2.0 0.00 0.00 0.00 92 1020.3
20260902062905 61 118 0.0 2.0 0.00 0.00 0.00 92 1020.3
20260902062405 61 118 0.0 0.0 0.00 0.00 0.00 92 1020.3
20260902061905 61 118 0.0 0.0 0.00 0.00 0.00 92 1020.2
20260902060907 61 118 0.0 0.0 0.00 0.00 0.00 92 1020.2
20260902060405 62 118 0.0 0.0 0.00 0.00 0.00 92 1020.1
20260902055905 62 118 0.0 0.0 0.00 0.00 0.00 92 1020.1
20260902054905 62 118 0.0 0.0 0.00 0.00 0.00 92 1020.0
20260902054405 62 118 0.0 0.0 0.00 0.00 0.00 91 1020.0
20260902053905 62 118 0.0 0.0 0.00 0.00 0.00 91 1020.0
20260902052405 62 118 0.0 0.0 0.00 0.00 0.00 91 1020.1
20260902051405 62 118 0.0 0.0 0.00 0.00 0.00 91 1020.0
20260902050904 62 118 0.0 0.0 0.00 0.00 0.00 91 1020.0
20260902050405 62 118 0.0 1.0 0.00 0.00 0.00 91 1019.9
20260902045905 62 118 0.0 0.0 0.00 0.00 0.00 91 1019.8
20260902045405 63 118 0.0 0.0 0.00 0.00 0.00 91 1019.9
20260902044405 63 118 0.0 3.0 0.00 0.00 0.00 91 1019.8
20260902043904 63 118 0.0 2.0 0.00 0.00 0.00 91 1019.8
20260902043405 63 118 0.0 0.0 0.00 0.00 0.00 91 1019.9
20260902042905 63 118 0.0 0.0 0.00 0.00 0.00 91 1019.7
20260902042405 63 118 0.0 0.0 0.00 0.00 0.00 91 1019.8
20260902041905 63 118 0.0 3.0 0.00 0.00 0.00 90 1019.7
20260902041405 63 118 0.0 0.0 0.00 0.00 0.00 90 1019.7
20260902040905 63 118 0.0 0.0 0.00 0.00 0.00 90 1019.8
20260902040404 63 118 0.0 0.0 0.00 0.00 0.00 90 1019.8
20260902035904 63 118 0.0 3.0 0.00 0.00 0.00 90 1019.8
20260902035405 63 118 1.0 3.0 0.00 0.00 0.00 90 1019.9
20260902034905 63 118 1.0 3.0 0.00 0.00 0.00 90 1019.9
20260902034405 63 118 0.0 3.0 0.00 0.00 0.00 90 1019.9
20260902033404 63 118 0.0 0.0 0.00 0.00 0.00 90 1019.9
20260902032904 63 118 0.0 3.0 0.00 0.00 0.00 89 1020.0
20260902032405 63 118 0.0 0.0 0.00 0.00 0.00 89 1019.9
20260902031904 63 118 0.0 0.0 0.00 0.00 0.00 90 1020.1
20260902030905 63 118 0.0 3.0 0.00 0.00 0.00 89 1020.0
20260902030405 63 118 1.0 3.0 0.00 0.00 0.00 89 1020.0
20260902025904 63 118 1.0 5.0 0.00 0.00 0.00 89 1020.0
20260902025404 63 118 1.0 6.0 0.00 0.00 0.00 89 1020.1
20260902024405 63 118 0.0 3.0 0.00 0.00 0.00 89 1020.1
20260902023905 63 118 0.0 3.0 0.00 0.00 0.00 89 1020.0
20260902023405 63 118 1.0 6.0 0.00 0.00 0.00 88 1020.0
20260902021905 63 118 0.0 2.0 0.00 0.00 0.00 88 1020.1
20260902021405 64 118 1.0 6.0 0.00 0.00 0.00 88 1020.2
20260902020905 64 160 0.0 3.0 0.00 0.00 0.00 88 1020.3
20260902020405 64 161 1.0 6.0 0.00 0.00 0.00 88 1020.3
20260902015904 64 161 0.0 0.0 0.00 0.00 0.00 88 1020.3
20260902015404 64 161 0.0 2.0 0.00 0.00 0.00 88 1020.4
20260902014905 64 161 0.0 2.0 0.00 0.00 0.00 88 1020.4
20260902014404 64 161 2.0 5.0 0.00 0.00 0.00 88 1020.4
20260902013904 64 162 0.0 1.0 0.00 0.00 0.00 88 1020.5
20260902013404 64 162 0.0 0.0 0.00 0.00 0.00 88 1020.5
20260902012905 64 162 0.0 0.0 0.00 0.00 0.00 88 1020.4
20260902012404 64 162 0.0 3.0 0.00 0.00 0.00 88 1020.4
20260902011904 64 113 2.0 6.0 0.00 0.00 0.00 88 1020.4
20260902011405 64 334 2.0 6.0 0.00 0.00 0.00 88 1020.5
20260902010905 64 129 2.0 7.0 0.00 0.00 0.00 88 1020.5
20260902010404 64 130 1.0 6.0 0.00 0.00 0.00 88 1020.5
20260902005904 64 130 0.0 2.0 0.00 0.00 0.00 88 1020.5
20260902005405 64 130 1.0 3.0 0.00 0.00 0.00 88 1020.5
20260902004904 64 168 1.0 8.0 0.00 0.00 0.00 88 1020.6
20260902004404 64 139 2.0 6.0 0.00 0.00 0.00 88 1020.5
20260902003904 64 168 3.0 7.0 0.00 0.00 0.00 88 1020.6
20260902001904 64 100 0.0 6.0 0.00 0.00 0.00 88 1020.5
20260902001405 64 108 2.0 12.0 0.00 0.00 0.00 88 1020.6
20260902000905 64 120 1.0 9.0 0.00 0.00 0.00 88 1020.6
20260902000406 64 129 1.0 8.0 0.00 0.00 0.00 88 1020.5
20260901235905 64 85 0.0 9.0 0.00 0.00 0.00 88 1020.4
20260901235404 64 143 1.0 7.0 0.00 0.00 0.00 88 1020.3
20260901234905 64 106 4.0 10.0 0.00 0.00 0.00 88 1020.2
20260901233904 64 137 3.0 13.0 0.00 0.00 0.00 87 1020.2
20260901233404 64 109 3.0 10.0 0.00 0.00 0.00 87 1020.2
20260901232904 64 153 3.0 12.0 0.00 0.00 0.00 87 1020.3
20260901232404 64 102 3.0 8.0 0.00 0.00 0.00 87 1020.4
20260901231905 64 134 5.0 8.0 0.00 0.00 0.00 86 1020.4
20260901231404 64 117 3.0 8.0 0.00 0.00 0.00 86 1020.3
20260901230904 65 132 5.0 9.0 0.00 0.00 0.00 85 1020.4
20260901230404 65 114 5.0 12.0 0.00 0.00 0.00 85 1020.4
20260901225904 65 123 2.0 10.0 0.00 0.00 0.00 85 1020.4
20260901225404 65 131 5.0 10.0 0.00 0.00 0.00 84 1020.3
20260901224404 65 109 1.0 8.0 0.00 0.00 0.00 84 1020.4
20260901223905 65 113 5.0 10.0 0.00 0.00 0.00 84 1020.4
20260901222904 66 128 4.0 10.0 0.00 0.00 0.00 83 1020.6
20260901222405 66 155 3.0 7.0 0.00 0.00 0.00 83 1020.5
20260901221904 66 116 2.0 7.0 0.00 0.00 0.00 82 1020.4
20260901221405 66 131 3.0 9.0 0.00 0.00 0.00 82 1020.4
20260901220905 66 137 4.0 9.0 0.00 0.00 0.00 82 1020.4
20260901220404 66 116 6.0 9.0 0.00 0.00 0.00 81 1020.5
20260901215404 66 130 4.0 10.0 0.00 0.00 0.00 81 1020.4
20260901214904 66 124 1.0 10.0 0.00 0.00 0.00 80 1020.5
20260901214404 67 117 3.0 9.0 0.00 0.00 0.00 80 1020.6
20260901213904 67 114 1.0 7.0 0.00 0.00 0.00 79 1020.4
20260901213404 67 138 3.0 10.0 0.00 0.00 0.00 79 1020.5
20260901212905 67 30 3.0 9.0 0.00 0.00 0.00 79 1020.6
20260901212405 67 138 1.0 6.0 0.00 0.00 0.00 78 1020.5
20260901211905 67 113 1.0 7.0 0.00 0.00 0.00 78 1020.5
20260901211405 67 108 2.0 10.0 0.00 0.00 0.00 77 1020.4
20260901210907 68 162 3.0 10.0 0.00 0.00 0.00 76 1020.3
20260901210405 68 167 2.0 9.0 0.00 0.00 0.00 76 1020.3
20260901205905 68 122 1.0 7.0 0.00 0.00 0.00 75 1020.2
20260901205404 68 155 2.0 9.0 0.00 0.00 0.00 74 1020.1
20260901204904 68 104 3.0 9.0 0.00 0.00 0.00 74 1020.1
20260901204404 69 135 1.0 8.0 0.00 0.00 0.00 73 1020.1
20260901203905 69 167 2.0 12.0 0.00 0.00 0.00 73 1020.0
20260901203404 69 137 2.0 12.0 0.00 0.00 0.00 72 1020.0
20260901202905 69 134 1.0 10.0 0.00 0.00 0.00 71 1020.0
20260901202405 69 128 5.0 10.0 0.00 0.00 0.00 71 1020.0
20260901201904 70 143 2.0 9.0 0.00 0.00 0.00 70 1020.0
20260901200404 70 167 2.0 9.0 0.00 0.00 0.00 68 1019.8
20260901195404 70 97 2.0 8.0 0.00 0.00 0.00 67 1019.6
20260901194904 71 62 1.0 6.0 0.00 0.00 0.00 67 1019.5
20260901194404 71 133 1.0 7.0 0.00 0.00 0.00 67 1019.4
20260901193904 71 86 2.0 8.0 0.00 0.00 0.00 66 1019.4
20260901193404 71 101 1.0 12.0 0.00 0.00 0.00 66 1019.4
20260901192906 72 65 3.0 10.0 0.00 0.00 0.00 66 1019.4
20260901192405 72 170 1.0 12.0 0.00 0.00 0.00 65 1019.4
20260901191905 72 126 3.0 12.0 0.00 0.00 0.00 64 1019.4
20260901191405 72 109 1.0 7.0 0.00 0.00 0.00 64 1019.4
20260901190905 73 115 2.0 10.0 0.00 0.00 0.00 64 1019.3
20260901190405 73 79 0.0 7.0 0.00 0.00 0.00 63 1019.4
20260901185906 73 111 3.0 13.0 0.00 0.00 0.00 62 1019.3
20260901185405 74 147 1.0 7.0 0.00 0.00 0.00 63 1019.3
20260901184406 74 121 1.0 12.0 0.00 0.00 0.00 61 1019.1
20260901183905 75 153 0.0 13.0 0.00 0.00 0.00 61 1019.1
20260901183405 75 105 1.0 9.0 0.00 0.00 0.00 61 1019.0
20260901182905 75 126 2.0 10.0 0.00 0.00 0.00 60 1019.0
20260901182405 76 119 1.0 10.0 0.00 0.00 0.00 59 1019.0
20260901181905 76 113 3.0 10.0 0.00 0.00 0.00 58 1019.0
20260901181405 77 51 1.0 9.0 0.00 0.00 0.00 59 1018.8
20260901180905 77 98 3.0 13.0 0.00 0.00 0.00 59 1018.9
20260901180405 77 108 2.0 10.0 0.00 0.00 0.00 59 1018.9
20260901175405 78 93 3.0 12.0 0.00 0.00 0.00 59 1018.8
20260901174905 78 88 3.0 12.0 0.00 0.00 0.00 58 1018.7
20260901173905 79 170 1.0 20.0 0.00 0.00 0.00 58 1018.7
20260901173406 79 117 5.0 15.0 0.00 0.00 0.00 57 1018.7
20260901172905 79 152 4.0 15.0 0.00 0.00 0.00 56 1018.7
20260901172406 80 113 3.0 10.0 0.00 0.00 0.00 55 1018.7
20260901171908 80 158 1.0 12.0 0.00 0.00 0.00 55 1018.7
20260901170906 81 81 3.0 15.0 0.00 0.00 0.00 54 1018.5
20260901170405 81 119 2.0 15.0 0.00 0.00 0.00 54 1018.5
20260901165905 82 115 3.0 12.0 0.00 0.00 0.00 53 1018.4
20260901165405 83 92 3.0 20.0 0.00 0.00 0.00 52 1018.3
20260901163406 84 146 3.0 16.0 0.00 0.00 0.00 51 1018.2
20260901162905 84 104 3.0 12.0 0.00 0.00 0.00 50 1018.1
20260901162405 84 83 2.0 8.0 0.00 0.00 0.00 50 1018.1
20260901161905 84 85 2.0 8.0 0.00 0.00 0.00 49 1018.1
20260901161406 85 122 2.0 9.0 0.00 0.00 0.00 49 1018.1
20260901160905 84 107 1.0 10.0 0.00 0.00 0.00 49 1018.2
20260901155905 84 137 1.0 8.0 0.00 0.00 0.00 49 1018.1
20260901155405 84 158 3.0 12.0 0.00 0.00 0.00 49 1018.1
20260901154905 85 128 2.0 14.0 0.00 0.00 0.00 49 1018.1
20260901153905 85 164 1.0 14.0 0.00 0.00 0.00 49 1018.0
20260901153405 85 136 2.0 9.0 0.00 0.00 0.00 49 1018.1
20260901152905 85 129 3.0 10.0 0.00 0.00 0.00 49 1018.2
20260901152405 85 95 3.0 12.0 0.00 0.00 0.00 49 1018.1
20260901151905 85 118 2.0 8.0 0.00 0.00 0.00 49 1018.2
20260901151405 85 94 3.0 12.0 0.00 0.00 0.00 49 1018.1
20260901150906 85 99 2.0 9.0 0.00 0.00 0.00 49 1018.2
20260901150405 86 125 3.0 10.0 0.00 0.00 0.00 49 1018.2
20260901145905 85 98 1.0 10.0 0.00 0.00 0.00 49 1018.1
20260901145405 85 127 2.0 10.0 0.00 0.00 0.00 49 1018.2
20260901144905 85 113 1.0 8.0 0.00 0.00 0.00 49 1018.1
20260901144405 85 77 0.0 7.0 0.00 0.00 0.00 49 1018.2
20260901143905 85 112 0.0 8.0 0.00 0.00 0.00 49 1018.2
20260901143405 84 78 0.0 7.0 0.00 0.00 0.00 50 1018.2
20260901142905 85 135 2.0 9.0 0.00 0.00 0.00 49 1018.3
20260901142405 84 136 3.0 9.0 0.00 0.00 0.00 49 1018.4
20260901141905 84 70 0.0 12.0 0.00 0.00 0.00 50 1018.4
20260901141405 84 145 2.0 10.0 0.00 0.00 0.00 49 1018.5
20260901140405 85 142 5.0 12.0 0.00 0.00 0.00 48 1018.6
20260901135905 84 106 0.0 3.0 0.00 0.00 0.00 50 1018.6
20260901135406 84 67 1.0 12.0 0.00 0.00 0.00 51 1018.7
20260901134905 84 115 3.0 10.0 0.00 0.00 0.00 50 1018.8
20260901133405 83 144 0.0 7.0 0.00 0.00 0.00 51 1018.9
20260901132905 83 63 3.0 13.0 0.00 0.00 0.00 51 1018.9
20260901132405 83 125 2.0 12.0 0.00 0.00 0.00 51 1019.0
20260901131905 84 99 1.0 10.0 0.00 0.00 0.00 50 1019.0
20260901131405 84 84 2.0 10.0 0.00 0.00 0.00 51 1019.0
20260901130906 83 87 2.0 10.0 0.00 0.00 0.00 51 1018.9
20260901130405 83 97 2.0 10.0 0.00 0.00 0.00 51 1019.0
20260901125405 83 178 1.0 7.0 0.00 0.00 0.00 53 1019.0
20260901124905 83 43 0.0 3.0 0.00 0.00 0.00 53 1019.1
20260901124405 82 42 0.0 10.0 0.00 0.00 0.00 53 1019.1
20260901123905 82 95 2.0 10.0 0.00 0.00 0.00 54 1019.2
20260901123405 81 135 1.0 12.0 0.00 0.00 0.00 55 1019.1
20260901122905 80 127 1.0 12.0 0.00 0.00 0.00 57 1019.2
20260901122405 80 169 4.0 9.0 0.00 0.00 0.00 57 1019.3
20260901121905 80 114 5.0 12.0 0.00 0.00 0.00 57 1019.3
20260901121406 79 131 3.0 8.0 0.00 0.00 0.00 58 1019.3
20260901120905 79 145 6.0 16.0 0.00 0.00 0.00 57 1019.3
20260901120405 80 53 1.0 12.0 0.00 0.00 0.00 58 1019.3
20260901115905 79 100 2.0 12.0 0.00 0.00 0.00 59 1019.4
20260901115405 80 143 1.0 10.0 0.00 0.00 0.00 58 1019.5
20260901114905 80 109 2.0 10.0 0.00 0.00 0.00 59 1019.4
20260901114405 79 191 2.0 9.0 0.00 0.00 0.00 59 1019.5
20260901113905 78 32 0.0 9.0 0.00 0.00 0.00 60 1019.6
20260901113405 77 103 1.0 10.0 0.00 0.00 0.00 62 1019.7
20260901112905 77 41 1.0 8.0 0.00 0.00 0.00 62 1019.8
20260901112405 77 112 1.0 12.0 0.00 0.00 0.00 63 1019.9
20260901111905 77 121 4.0 12.0 0.00 0.00 0.00 63 1019.9
20260901111405 77 158 2.0 10.0 0.00 0.00 0.00 62 1019.9
20260901110905 77 93 4.0 12.0 0.00 0.00 0.00 64 1020.0
20260901110405 77 124 3.0 10.0 0.00 0.00 0.00 63 1020.0
20260901105905 77 86 2.0 12.0 0.00 0.00 0.00 64 1020.0
20260901105405 75 118 6.0 10.0 0.00 0.00 0.00 65 1020.0
20260901104905 75 128 6.0 18.0 0.00 0.00 0.00 66 1020.0
20260901104405 75 115 2.0 12.0 0.00 0.00 0.00 66 1020.1
20260901103905 75 77 2.0 12.0 0.00 0.00 0.00 68 1020.1
20260901103405 74 94 3.0 12.0 0.00 0.00 0.00 67 1020.1
20260901102905 74 128 1.0 8.0 0.00 0.00 0.00 68 1020.1
20260901101405 74 129 2.0 8.0 0.00 0.00 0.00 69 1020.2
20260901100905 73 131 2.0 8.0 0.00 0.00 0.00 70 1020.2
20260901095905 72 93 1.0 9.0 0.00 0.00 0.00 74 1020.1
20260901095404 71 120 4.0 15.0 0.00 0.00 0.00 73 1020.1
20260901094905 70 127 2.0 12.0 0.00 0.00 0.00 76 1020.0
20260901094405 69 106 1.0 9.0 0.00 0.00 0.00 78 1020.0
20260901093905 69 85 1.0 8.0 0.00 0.00 0.00 77 1019.9
20260901092904 69 127 2.0 12.0 0.00 0.00 0.00 77 1019.9
20260901092405 69 141 1.0 8.0 0.00 0.00 0.00 77 1019.9
20260901091905 69 133 2.0 12.0 0.00 0.00 0.00 76 1019.9
20260901091405 70 121 3.0 12.0 0.00 0.00 0.00 75 1019.8
20260901090405 71 104 2.0 10.0 0.00 0.00 0.00 74 1019.8
20260901085905 71 106 2.0 9.0 0.00 0.00 0.00 74 1019.7
20260901085404 71 81 1.0 6.0 0.00 0.00 0.00 73 1019.8
20260901084905 71 85 1.0 7.0 0.00 0.00 0.00 73 1019.8
20260901084405 71 142 5.0 10.0 0.00 0.00 0.00 73 1019.8
20260901083405 70 135 3.0 12.0 0.00 0.00 0.00 76 1019.7
20260901082405 69 349 1.0 13.0 0.00 0.00 0.00 77 1019.6
20260901081905 69 145 1.0 9.0 0.00 0.00 0.00 78 1019.7
20260901080905 68 119 3.0 9.0 0.00 0.00 0.00 79 1019.7
20260901080405 68 158 2.0 10.0 0.00 0.00 0.00 79 1019.7
20260901075904 68 77 0.0 6.0 0.00 0.00 0.00 81 1019.7
20260901075405 67 121 1.0 12.0 0.00 0.00 0.00 81 1019.6
20260901074905 67 111 1.0 7.0 0.00 0.00 0.00 82 1019.6
20260901074405 66 147 1.0 8.0 0.00 0.00 0.00 83 1019.6
20260901073905 66 111 0.0 8.0 0.00 0.00 0.00 83 1019.4
20260901073405 66 126 2.0 8.0 0.00 0.00 0.00 84 1019.4
20260901072905 66 143 2.0 8.0 0.00 0.00 0.00 84 1019.4
20260901072405 65 153 2.0 14.0 0.00 0.00 0.00 85 1019.3